Brno, Czech Republic

4:44 PM CEST on May 30, 2017 (GMT +0200)
Turany

Weather History for LKTB - November, 2013

Change the Weather History Date:

Tuesday, November 19, 2013

  Actual Average Record
Temperature  
Mean Temperature 44 °F -  
Max Temperature 46 °F 38 °F - ()
Min Temperature 41 °F 30 °F - ()
Degree Days  
Heating Degree Days 22    
Moisture  
Dew Point 40 °F    
Average Humidity 88    
Maximum Humidity 100    
Minimum Humidity 76    
Precipitation  
Precipitation 0.12 in 0.04 in - ()
Sea Level Pressure  
Sea Level Pressure 29.82 in    
Wind  
Wind Speed 11 mph ()    
Max Wind Speed 17 mph    
Max Gust Speed -    
Visibility 3.9 miles    
Events Rain    
T = Trace of Precipitation, MM = Missing Value Source: Averaged Metar Reports

Daily Weather History Graph

Daily Weather History Graph

Search for Another Location

Airport or City:

Trip Planner

Search our weather history database for the weather conditions in past years. The results will help you decide how hot, cold, wet, or windy it might be!

Date:

Astronomy

Nov. 19, 2013 Rise Set
Actual Time 7:09 AM CET 4:07 PM CET
Civil Twilight 6:34 AM CET 4:42 PM CET
Nautical Twilight 5:55 AM CET 5:21 PM CET
Astronomical Twilight 5:17 AM CET 5:59 PM CET
Moon 5:42 PM CET (11/19) 8:35 AM CET (11/19)
Length of Visible Light 10h 08m
Length of Day
8h 57m
Full, 97% of the Moon is Illuminated
Nov 19
Full
Nov 25
Last Quarter
Dec 3
New
Dec 9
First Quarter
Dec 17
Full

Hourly Weather History & Observations

Time (CET) Temp. Windchill Dew Point Humidity Pressure Visibility Wind Dir Wind Speed Gust Speed Precip Events Conditions
12:00 AM 41.0 °F 34.7 °F 41.0 °F 100% 29.95 in 1.9 mi SE 10.4 mph - N/A   Light Drizzle
12:30 AM 41.0 °F 34.3 °F 41.0 °F 100% 29.95 in 1.9 mi SE 11.5 mph - N/A   Light Drizzle
1:00 AM 42 °F - 41 °F 94% 29.96 in 2 mi ESE 11.2 mph - - Rain Light Drizzle
1:00 AM 41.0 °F 34.3 °F 41.0 °F 100% 29.92 in 1.9 mi ESE 11.5 mph - N/A   Light Drizzle
1:30 AM 41.0 °F 34.3 °F 41.0 °F 100% 29.92 in 1.9 mi SE 11.5 mph - N/A   Light Drizzle
2:00 AM 41.0 °F 34.7 °F 41.0 °F 100% 29.92 in 1.9 mi ESE 10.4 mph - N/A   Light Drizzle
2:30 AM 42.8 °F 37.0 °F 41.0 °F 93% 29.92 in 1.9 mi ESE 10.4 mph - N/A   Light Drizzle
3:00 AM 42.8 °F 37.5 °F 41.0 °F 93% 29.89 in 2.2 mi ESE 9.2 mph - N/A   Light Drizzle
3:30 AM 42.8 °F 37.5 °F 41.0 °F 93% 29.89 in 2.2 mi ESE 9.2 mph - N/A   Light Drizzle
4:00 AM 42.8 °F 37.5 °F 41.0 °F 93% 29.89 in - ESE 9.2 mph - N/A   Light Drizzle
4:30 AM 42.8 °F 36.6 °F 41.0 °F 93% 29.86 in - ESE 11.5 mph - N/A   Overcast
5:00 AM 42.8 °F 36.2 °F 41.0 °F 93% 29.86 in - SE 12.7 mph - N/A   Overcast
5:30 AM 42.8 °F 36.6 °F 41.0 °F 93% 29.86 in 2.2 mi ESE 11.5 mph - N/A   Overcast
6:00 AM 42.8 °F 36.2 °F 41.0 °F 93% 29.86 in 2.2 mi SE 12.7 mph - N/A   Overcast
6:30 AM 42.8 °F 36.6 °F 41.0 °F 93% 29.86 in 2.2 mi ESE 11.5 mph - N/A   Overcast
7:00 AM 43 °F - 41 °F 88% 29.88 in 3 mi SE 13.4 mph - -   Mist
7:00 AM 42.8 °F 35.8 °F 41.0 °F 93% 29.86 in 3.1 mi SE 13.8 mph - N/A   Overcast
7:30 AM 42.8 °F 36.6 °F 41.0 °F 93% 29.86 in 2.5 mi SE 11.5 mph - N/A   Overcast
8:00 AM 42.8 °F 35.8 °F 41.0 °F 93% 29.86 in - SE 13.8 mph - N/A   Overcast
8:30 AM 42.8 °F 36.2 °F 41.0 °F 93% 29.86 in 2.5 mi SE 12.7 mph - N/A   Overcast
9:00 AM 42.8 °F 36.2 °F 41.0 °F 93% 29.86 in 2.5 mi SE 12.7 mph - N/A   Overcast
9:30 AM 42.8 °F 37.0 °F 39.2 °F 87% 29.86 in 2.5 mi SE 10.4 mph - N/A   Overcast
10:00 AM 42.8 °F 38.0 °F 41.0 °F 93% 29.86 in - ESE 8.1 mph - N/A   Overcast
10:30 AM 42.8 °F 37.5 °F 41.0 °F 93% 29.86 in - ESE 9.2 mph - N/A   Overcast
11:00 AM 44.6 °F 38.4 °F 41.0 °F 87% 29.83 in 2.5 mi ESE 12.7 mph - N/A   Overcast
11:30 AM 44.6 °F 38.1 °F 41.0 °F 87% 29.83 in - ESE 13.8 mph - N/A   Overcast
12:00 PM 44.6 °F 37.8 °F 41.0 °F 87% 29.83 in 3.1 mi ESE 15.0 mph - N/A   Overcast
12:30 PM 44.6 °F 38.4 °F 41.0 °F 87% 29.80 in 3.1 mi SE 12.7 mph - N/A   Overcast
1:00 PM 45 °F - 40 °F 78% 29.81 in 4 mi SE 13.4 mph - -   Mist
1:00 PM 44.6 °F 38.4 °F 41.0 °F 87% 29.80 in 3.7 mi SE 12.7 mph - N/A   Scattered Clouds
1:30 PM 46.4 °F 40.4 °F 41.0 °F 81% 29.77 in 3.7 mi ESE 13.8 mph - N/A   Mostly Cloudy
2:00 PM 46.4 °F 39.5 °F 41.0 °F 81% 29.77 in 3.7 mi SE 17.3 mph - N/A   Scattered Clouds
2:30 PM 46.4 °F 39.8 °F 41.0 °F 81% 29.77 in 4.3 mi SE 16.1 mph - N/A   Scattered Clouds
3:00 PM 46.4 °F 40.1 °F 39.2 °F 76% 29.77 in 5.0 mi SE 15.0 mph - N/A   Scattered Clouds
3:30 PM 44.6 °F 39.7 °F 39.2 °F 81% 29.77 in 4.3 mi SE 9.2 mph - N/A   Partly Cloudy
4:00 PM 44.6 °F 39.2 °F 39.2 °F 81% 29.77 in 5.0 mi SE 10.4 mph - N/A   Unknown
4:30 PM 44.6 °F 40.2 °F 39.2 °F 81% 29.77 in 5.0 mi ESE 8.1 mph - N/A   Partly Cloudy
5:00 PM 42.8 °F 35.8 °F 39.2 °F 87% 29.74 in 5.6 mi SE 13.8 mph - N/A   Unknown
5:30 PM 44.6 °F 39.2 °F 39.2 °F 81% 29.74 in 6.2 mi SE 10.4 mph - N/A   Mostly Cloudy
6:00 PM 44.6 °F 40.2 °F 39.2 °F 81% 29.74 in 6.2 mi SSE 8.1 mph - N/A   Mostly Cloudy
6:30 PM 42.8 °F 37.0 °F 39.2 °F 87% 29.74 in 6.2 mi SSE 10.4 mph - N/A   Mostly Cloudy
7:00 PM 44 °F - 39 °F 76% 29.79 in 6 mi SE 11.2 mph - -   Overcast
7:00 PM 44.6 °F 38.4 °F 39.2 °F 81% 29.74 in 6.2 mi SE 12.7 mph - N/A   Overcast
7:30 PM 42.8 °F 36.6 °F 39.2 °F 87% 29.74 in 6.2 mi SE 11.5 mph - N/A   Mostly Cloudy
8:00 PM 44.6 °F 38.1 °F 39.2 °F 81% 29.74 in 6.2 mi SE 13.8 mph - N/A   Overcast
8:30 PM 44.6 °F 39.7 °F 39.2 °F 81% 29.74 in 6.2 mi ESE 9.2 mph - N/A   Overcast
9:00 PM 44.6 °F 40.2 °F 39.2 °F 81% 29.74 in 5.0 mi ESE 8.1 mph - N/A   Overcast
9:30 PM 44.6 °F 39.7 °F 39.2 °F 81% 29.71 in 5.0 mi ESE 9.2 mph - N/A   Overcast
10:00 PM 44.6 °F 39.2 °F 39.2 °F 81% 29.71 in 5.0 mi ESE 10.4 mph - N/A   Overcast
10:30 PM 44.6 °F 39.2 °F 39.2 °F 81% 29.71 in 5.0 mi ESE 10.4 mph - N/A   Mostly Cloudy
10:47 PM 46.4 °F 40.7 °F 39.2 °F 76% 29.71 in 5.0 mi SE 12.7 mph - N/A Rain Light Rain
11:00 PM 44.6 °F 38.4 °F 39.2 °F 81% 29.71 in 5.0 mi SE 12.7 mph - N/A Rain Light Rain
11:30 PM 44.6 °F 40.7 °F 41.0 °F 87% 29.68 in 5.0 mi ESE 6.9 mph - N/A Rain Light Rain